Location: Gleizolles
(44.4833°N, 6.7667°E)
Time: 15:54:03
(UTC+00:00)

Altair - Pass Details

Date: 28 June 2024
Orbit: 1502 x 1681 km, 47.2° (Epoch: 13 July)

Event Time Altitude Azimuth Distance (km) Brightness Sun altitude
Rises 00:52:06 0° 250° (WSW) 4,629 - -20.1°
Exits shadow 00:54:31 - 250° (WSW) 3,837 9.2 -19.9°
Reaches altitude 10° 00:55:05 10° 250° (WSW) 3,653 9.1 -19.9°
Maximum altitude 01:04:18 89° 337° (NNW) 1,529 7.4 -19.3°
Drops below altitude 10° 01:13:49 10° 73° (ENE) 3,754 10.1 -18.7°
Sets 01:16:56 0° 73° (ENE) 4,762 10.7 -18.5°
